Terug naar catalogus

CZ-4 DEB

ActiefPO
NORAD 26187·DEBRIS·🇨🇳 China

Gelanceerd Oct 14, 1999 vanaf Taiyuan Satellite Launch Center

Loading…

Volgende Passages (komende 24 uur)

TLE

VersSource: Space-Track

Epoch: Sep 14, 2026, 11:58 UTC

1 26187U 99057BZ  26257.49905745  .00001598  00000-0  16604-3 0  9992
2 26187  98.5462 334.3255 0046077  34.7756 325.6457 14.90800859427718

Volg CZ-4 DEB in realtime met AllMySat

Download on the App Store